This demonstration page uses our WeatherBlox Daily Observations layout. Learn more.

Left ArrowRight Arrow

34.74481, -87.66753

Hourly Observations for February 9, 2018

Temp ( °F °C ) Dew Point ( °F °C ) Humidity (%) Winds ( mph kmh ) Pressure ( in mb ) Visibility ( mi km ) Precip ( " mm )
12:53 am 00:53 Clear 33 0.6 29 -1.7 85 85 ESE 3 6 30.36 1028 10 16 0.00 0.00
1:53 am 01:53 Clear 33 0.6 28 -2.2 82 82 E 3 6 30.35 1028 10 16 0.00 0.00
2:53 am 02:53 Clear 33 0.6 29 -1.7 85 85 ESE 5 7 30.33 1027 9 14 0.00 0.00
3:53 am 03:53 Clear 32 0 29 -1.7 88 88 ESE 5 7 30.31 1027 8 13 0.00 0.00
4:53 am 04:53 Clear 33 0.6 29 -1.7 85 85 E 3 6 30.31 1026 8 13 0.00 0.00
5:53 am 05:53 Clear 32 0 29 -1.7 88 88 ESE 5 7 30.33 1027 7 11 0.00 0.00
6:53 am 06:53 Sunny with Mist and Fog 31 -0.6 28 -2.2 89 89 E 3 6 30.34 1027 6 10 0.00 0.00
7:53 am 07:53 Sunny 36 2.2 31 -0.6 82 82 E 3 6 30.35 1028 10 16 0.00 0.00
8:53 am 08:53 Sunny 44 6.7 33 0.6 65 65 SE 7 11 30.35 1028 10 16 0.00 0.00
9:53 am 09:53 Sunny 51 10.6 36 2.2 56 56 SE 7 11 30.34 1027 10 16 0.00 0.00
10:53 am 10:53 Sunny 59 15 40 4.4 49 49 S 8 13 30.31 1026 10 16 0.00 0.00
11:53 am 11:53 Sunny 63 17.2 42 5.6 47 47 S 15 24 30.26 1025 10 16 0.00 0.00
12:53 pm 12:53 Sunny 64 17.8 40 4.4 41 41 S 10 17 30.21 1023 10 16 0.00 0.00
1:53 pm 13:53 Mostly Cloudy 65 18.3 39 3.9 39 39 S 9 15 30.17 1022 10 16 0.00 0.00
2:53 pm 14:53 Cloudy 66 18.9 41 5 40 40 S 6 9 30.16 1021 10 16 0.00 0.00
3:53 pm 15:53 Cloudy 65 18.3 42 5.6 43 43 SSE 9 15 30.14 1021 10 16 0.00 0.00
4:53 pm 16:53 Mostly Cloudy 63 17.2 43 6.1 48 48 S 6 9 30.14 1021 10 16 0.00 0.00
5:53 pm 17:53 Cloudy 61 16.1 42 5.6 50 50 SSE 6 9 30.14 1021 10 16 0.00 0.00
6:53 pm 18:53 Mostly Cloudy 61 16.1 42 5.6 50 50 S 6 9 30.14 1021 10 16 0.00 0.00
7:53 pm 19:53 Cloudy 58 14.4 45 7.2 62 62 SSE 6 9 30.15 1021 10 16 0.00 0.00
8:53 pm 20:53 Cloudy with Light Rain 56 13.3 50 10 81 81 S 8 13 30.16 1021 9 14 0.00 0.03
9:53 pm 21:53 Cloudy with Light Rain 54 12.2 51 10.6 90 90 SSE 7 11 30.14 1021 10 16 0.01 0.25
10:53 pm 22:53 Cloudy with Rain 54 12.2 51 10.6 90 90 SE 8 13 30.12 1020 4 6 0.00 0.00
11:26 pm 23:26 Cloudy 54 12.2 51 10.6 90 90 SSE 8 13 30.12 1020 10 16 0.00 0.00
11:46 pm 23:46 Cloudy 54 12.2 52 11.1 93 93 SSE 7 11 30.12 1020 10 16 0.00 0.00
11:53 pm 23:53 Cloudy 54 12.2 52 11.1 93 93 SSE 7 11 30.11 1020 10 16 0.00 0.00

Powered by AerisWeather